Abilene Dyess, TX

8:13 PM CDT on March 22, 2017 (GMT -0500)
Dyess Air Force Base

Weather History for KDYS - March, 2014

Change the Weather History Date:

Tuesday, March 11, 2014

  Actual Average Record
Temperature  
Mean Temperature 70 °F -  
Max Temperature 89 °F 63 °F 89 °F (2014)
Min Temperature 50 °F 42 °F 26 °F (2013)
Cooling Degree Days 4    
Growing Degree Days 20 (Base 50)    
Moisture  
Dew Point 38 °F    
Average Humidity 51    
Maximum Humidity 100    
Minimum Humidity 7    
Precipitation  
Precipitation 0.00 in - - ()
Sea Level Pressure  
Sea Level Pressure 29.63 in    
Wind  
Wind Speed 17 mph (SW)    
Max Wind Speed 29 mph    
Max Gust Speed 38 mph    
Visibility 10 miles    
Events      
Averages and records for this station are not official NWS values.
T = Trace of Precipitation, MM = Missing Value Source: NWS Daily Summary

Daily Weather History Graph

Daily Weather History Graph

Search for Another Location

Airport or City:

Trip Planner

Search our weather history database for the weather conditions in past years. The results will help you decide how hot, cold, wet, or windy it might be!

Date:

Astronomy

Mar. 11, 2014 Rise Set
Actual Time 7:54 AM CDT 7:44 PM CDT
Civil Twilight 7:30 AM CDT 8:09 PM CDT
Nautical Twilight 7:01 AM CDT 8:37 PM CDT
Astronomical Twilight 6:33 AM CDT 9:06 PM CDT
Moon 3:33 PM CDT (3/11) 4:37 AM CDT (3/11)
Length of Visible Light 12h 38m
Length of Day
11h 49m
Waxing Gibbous, 78% of the Moon is Illuminated
Mar 11
Waxing Gibbous
Mar 16
Full
Mar 23
Last Quarter
Mar 30
New
Apr 7
First Quarter

Hourly Weather History & Observations

Time (CDT) Temp. Dew Point Humidity Pressure Visibility Wind Dir Wind Speed Gust Speed Precip Events Conditions
12:58 AM 58.5 °F 49.6 °F 72% 29.74 in 10.0 mi South 15.0 mph 21.9 mph N/A   Clear
1:58 AM 56.1 °F 49.5 °F 78% 29.71 in 10.0 mi South 11.5 mph - N/A   Clear
2:58 AM 56.1 °F 50.4 °F 81% 29.68 in 10.0 mi South 16.1 mph - N/A   Clear
3:58 AM 54.1 °F 49.8 °F 85% 29.68 in 10.0 mi South 9.2 mph - N/A   Clear
4:58 AM 53.2 °F 49.3 °F 86% 29.63 in 10.0 mi South 17.3 mph - N/A   Clear
5:58 AM 51.6 °F 48.9 °F 90% 29.62 in 10.0 mi South 16.1 mph - N/A   Clear
6:38 AM 50.0 °F 48.2 °F 94% 29.71 in 10.0 mi South 17.3 mph 23.0 mph N/A   Mostly Cloudy
6:48 AM 50.0 °F 50.0 °F 100% 29.70 in 10.0 mi South 16.1 mph - N/A   Mostly Cloudy
6:58 AM 50.2 °F 48.9 °F 95% 29.63 in 10.0 mi South 18.4 mph - N/A   Mostly Cloudy
7:08 AM 50.0 °F 48.2 °F 94% 29.70 in 10.0 mi South 15.0 mph - N/A   Scattered Clouds
7:58 AM 50.0 °F 48.0 °F 93% 29.62 in 10.0 mi South 16.1 mph - N/A   Clear
8:58 AM 52.5 °F 48.9 °F 88% 29.64 in 10.0 mi South 11.5 mph - N/A   Clear
9:58 AM 57.6 °F 48.6 °F 72% 29.64 in 10.0 mi South 16.1 mph - N/A   Clear
10:58 AM 64.6 °F 48.0 °F 55% 29.61 in 10.0 mi SSW 16.1 mph - N/A   Clear
11:58 AM 72.0 °F 42.8 °F 35% 29.60 in 10.0 mi SW 18.4 mph 23.0 mph N/A   Clear
12:58 PM 77.5 °F 40.3 °F 26% 29.55 in 10.0 mi SW 19.6 mph 26.5 mph N/A   Clear
1:16 PM 80.6 °F 32.0 °F 17% 29.63 in 10.0 mi West 18.4 mph 24.2 mph N/A   Clear
1:58 PM 83.5 °F 28.2 °F 13% 29.51 in 10.0 mi West 18.4 mph 26.5 mph N/A   Clear
2:58 PM 88.2 °F 20.8 °F 9% 29.47 in 10.0 mi West 18.4 mph 26.5 mph N/A   Partly Cloudy
2:59 PM 87.8 °F 19.4 °F 8% 29.57 in 10.0 mi WNW 16.1 mph 26.5 mph N/A   Partly Cloudy
3:58 PM 89.2 °F 18.0 °F 7% 29.44 in 10.0 mi WNW 28.8 mph 36.8 mph N/A   Clear
4:58 PM 89.4 °F 18.1 °F 7% 29.44 in 10.0 mi WNW 26.5 mph 34.5 mph N/A   Clear
5:58 PM 87.6 °F 16.7 °F 7% 29.47 in 10.0 mi WNW 23.0 mph 31.1 mph N/A   Clear
6:58 PM 84.9 °F 17.8 °F 8% 29.50 in 8.0 mi NW 16.1 mph - N/A   Clear
7:58 PM 77.5 °F 22.3 °F 13% 29.56 in 10.0 mi North 12.7 mph - N/A   Clear
8:58 PM 73.8 °F 29.8 °F 20% 29.62 in 10.0 mi NNE 28.8 mph 34.5 mph N/A   Clear
9:58 PM 66.6 °F 36.5 °F 33% 29.73 in 10.0 mi NNE 23.0 mph 38.0 mph N/A   Clear
10:58 PM 58.1 °F 34.5 °F 41% 29.87 in 8.0 mi North 25.3 mph 38.0 mph N/A   Clear
11:58 PM 51.3 °F 32.9 °F 50% 29.96 in 7.0 mi NNE 25.3 mph 32.2 mph N/A   Clear